Zurück zum Katalog

DELTA 1 DEB

AktivSSO
NORAD 26834·DEBRIS·🇺🇸 United States

Gestartet Jun 12, 1975 von Vandenberg Space Force Base

Loading…

Nächste Überflüge (nächste 24 Stunden)

TLE

AktuellSource: Space-Track

Epoche: Sep 14, 2026, 00:20 UTC

1 26834U 75052KN  26257.01409057 -.00000026  00000-0  31409-4 0  9990
2 26834  99.7111 277.8886 0056246 216.9884 173.4290 13.32963957240066

Verfolge DELTA 1 DEB in Echtzeit mit AllMySat

Download on the App Store